Previsão horária em Brasília

Hoje, 15 Maio, Sábado

Tempo Temperatura Precipitação Vento Pressão Humidade
00:00 +18°C° 0 mm 1 m/s 667 mmHg 62%
01:00 +16°C° 0 mm 1 m/s 666 mmHg 63%
02:00 +16°C° 0 mm 1 m/s 666 mmHg 63%
03:00 +16°C° 0 mm 1 m/s 666 mmHg 64%
04:00 +16°C° 0 mm 1 m/s 666 mmHg 66%
05:00 +15°C° 0 mm 1 m/s 666 mmHg 68%
06:00 +15°C° 0 mm 1 m/s 666 mmHg 69%
07:00 +17°C° 0 mm 2 m/s 667 mmHg 64%
08:00 +19°C° 0 mm 2 m/s 668 mmHg 58%
09:00 +21°C° 0 mm 2 m/s 669 mmHg 52%
10:00 +24°C° 0 mm 2 m/s 669 mmHg 46%
11:00 +26°C° 0 mm 2 m/s 669 mmHg 40%
12:00 +27°C° 0 mm 1 m/s 669 mmHg 34%
13:00 +28°C° 0 mm 1 m/s 669 mmHg 33%
14:00 +28°C° 0 mm 1 m/s 668 mmHg 33%
15:00 +28°C° 0 mm 1 m/s 667 mmHg 32%
16:00 +26°C° 0 mm 1 m/s 667 mmHg 37%
17:00 +24°C° 0 mm 1 m/s 667 mmHg 42%
18:00 +23°C° 0 mm 1 m/s 666 mmHg 47%
19:00 +22°C° 0 mm 1 m/s 667 mmHg 49%
20:00 +21°C° 0 mm 1 m/s 667 mmHg 50%
21:00 +21°C° 0 mm 1 m/s 667 mmHg 52%
22:00 +20°C° 0 mm 1 m/s 667 mmHg 55%
23:00 +19°C° 0 mm 1 m/s 667 mmHg 58%

Amanhã, 16 Maio, Domingo

Tempo Temperatura Precipitação Vento Pressão Humidade
00:00 +19°C° 0 mm 1 m/s 667 mmHg 60%
01:00 +18°C° 0 mm 1 m/s 666 mmHg 62%
02:00 +18°C° 0 mm 1 m/s 666 mmHg 63%
03:00 +18°C° 0 mm 1 m/s 666 mmHg 65%
04:00 +18°C° 0 mm 1 m/s 666 mmHg 65%
05:00 +16°C° 0 mm 1 m/s 666 mmHg 66%
06:00 +16°C° 0 mm 1 m/s 666 mmHg 66%
07:00 +18°C° 0 mm 2 m/s 667 mmHg 60%
08:00 +20°C° 0 mm 2 m/s 668 mmHg 54%
09:00 +23°C° 0 mm 2 m/s 669 mmHg 48%
10:00 +25°C° 0 mm 2 m/s 669 mmHg 44%
11:00 +26°C° 0 mm 2 m/s 669 mmHg 39%
12:00 +28°C° 0 mm 2 m/s 669 mmHg 35%
13:00 +28°C° 0 mm 2 m/s 668 mmHg 34%
14:00 +28°C° 0 mm 2 m/s 668 mmHg 33%
15:00 +28°C° 0 mm 2 m/s 667 mmHg 32%
16:00 +27°C° 0 mm 2 m/s 667 mmHg 36%
17:00 +25°C° 0 mm 2 m/s 667 mmHg 40%
18:00 +24°C° 0 mm 2 m/s 667 mmHg 44%
19:00 +23°C° 0 mm 2 m/s 667 mmHg 46%
20:00 +23°C° 0 mm 2 m/s 667 mmHg 48%
21:00 +22°C° 0 mm 1 m/s 668 mmHg 50%
22:00 +22°C° 0 mm 1 m/s 668 mmHg 51%
23:00 +21°C° 0 mm 1 m/s 668 mmHg 53%

Depois de amanhã, 17 Maio, Segunda-feira

Tempo Temperatura Precipitação Vento Pressão Humidade
00:00 +21°C° 0 mm 1 m/s 668 mmHg 54%
01:00 +21°C° 0 mm 1 m/s 667 mmHg 54%
02:00 +21°C° 0 mm 1 m/s 667 mmHg 55%
03:00 +21°C° 0 mm 1 m/s 666 mmHg 55%
04:00 +21°C° 0 mm 1 m/s 667 mmHg 55%
05:00 +19°C° 0 mm 0 m/s 667 mmHg 55%
06:00 +19°C° 0 mm 0 m/s 667 mmHg 55%
07:00 +22°C° 0 mm 1 m/s 668 mmHg 52%
08:00 +23°C° 0 mm 1 m/s 668 mmHg 50%
09:00 +24°C° 0 mm 1 m/s 669 mmHg 48%
10:00 +25°C° 0 mm 1 m/s 669 mmHg 43%
11:00 +27°C° 0 mm 2 m/s 669 mmHg 39%
12:00 +28°C° 0 mm 2 m/s 669 mmHg 35%
13:00 +27°C° 0 mm 1 m/s 668 mmHg 38%
14:00 +26°C° 0 mm 1 m/s 667 mmHg 41%
15:00 +25°C° 0 mm 1 m/s 667 mmHg 44%
16:00 +25°C° 0 mm 1 m/s 667 mmHg 44%
17:00 +24°C° 0 mm 1 m/s 667 mmHg 45%
18:00 +23°C° 0 mm 1 m/s 667 mmHg 46%
19:00 +23°C° 0 mm 1 m/s 667 mmHg 47%
20:00 +22°C° 0 mm 1 m/s 667 mmHg 48%
21:00 +22°C° 0 mm 1 m/s 667 mmHg 50%
22:00 +21°C° 0 mm 1 m/s 667 mmHg 50%
23:00 +19°C° 0 mm 0 m/s 667 mmHg 50%

18 Maio, Terça-feira

Tempo Temperatura Precipitação Vento Pressão Humidade
00:00 +19°C° 0 mm 0 m/s 667 mmHg 51%
01:00 +19°C° 0 mm 0 m/s 667 mmHg 51%
02:00 +18°C° 0 mm 0 m/s 666 mmHg 51%
03:00 +18°C° 0 mm 0 m/s 666 mmHg 52%
04:00 +18°C° 0 mm 0 m/s 666 mmHg 53%
05:00 +17°C° 0 mm 0 m/s 666 mmHg 54%
06:00 +17°C° 0 mm 0 m/s 666 mmHg 56%
07:00 +19°C° 0 mm 0 m/s 667 mmHg 52%
08:00 +20°C° 0 mm 0 m/s 668 mmHg 48%
09:00 +22°C° 0 mm 0 m/s 669 mmHg 44%
10:00 +26°C° 0 mm 1 m/s 669 mmHg 39%
11:00 +28°C° 0 mm 1 m/s 669 mmHg 34%
12:00 +29°C° 0 mm 1 m/s 669 mmHg 29%
13:00 +29°C° 0 mm 1 m/s 668 mmHg 29%
14:00 +29°C° 0 mm 1 m/s 667 mmHg 29%
15:00 +29°C° 0 mm 2 m/s 667 mmHg 28%
16:00 +27°C° 0 mm 1 m/s 666 mmHg 33%
17:00 +25°C° 0 mm 1 m/s 666 mmHg 37%
18:00 +24°C° 0 mm 1 m/s 666 mmHg 41%
19:00 +23°C° 0 mm 1 m/s 666 mmHg 43%
20:00 +22°C° 0 mm 1 m/s 667 mmHg 46%
21:00 +21°C° 0 mm 1 m/s 667 mmHg 48%
22:00 +20°C° 0 mm 1 m/s 667 mmHg 51%
23:00 +20°C° 0 mm 1 m/s 667 mmHg 53%

19 Maio, Quarta-feira

Tempo Temperatura Precipitação Vento Pressão Humidade
00:00 +19°C° 0 mm 1 m/s 667 mmHg 56%
01:00 +19°C° 0 mm 1 m/s 666 mmHg 56%
02:00 +19°C° 0 mm 1 m/s 666 mmHg 57%
03:00 +19°C° 0 mm 1 m/s 666 mmHg 57%
04:00 +18°C° 0 mm 1 m/s 666 mmHg 57%
05:00 +18°C° 0 mm 1 m/s 666 mmHg 56%
06:00 +18°C° 0 mm 1 m/s 666 mmHg 55%
07:00 +19°C° 0 mm 0 m/s 667 mmHg 49%
08:00 +21°C° 0 mm 0 m/s 668 mmHg 42%
09:00 +24°C° 0 mm 0 m/s 669 mmHg 35%
10:00 +25°C° 0 mm 0 m/s 669 mmHg 31%
11:00 +29°C° 0 mm 1 m/s 669 mmHg 27%
12:00 +30°C° 0 mm 1 m/s 669 mmHg 23%
13:00 +30°C° 0 mm 2 m/s 668 mmHg 23%
14:00 +30°C° 0 mm 2 m/s 667 mmHg 23%
15:00 +30°C° 0 mm 2 m/s 667 mmHg 23%
16:00 +28°C° 0 mm 2 m/s 666 mmHg 28%
17:00 +26°C° 0 mm 2 m/s 666 mmHg 34%
18:00 +23°C° 0 mm 2 m/s 666 mmHg 39%
19:00 +22°C° 0 mm 1 m/s 666 mmHg 40%
20:00 +22°C° 0 mm 1 m/s 666 mmHg 42%
21:00 +21°C° 0 mm 1 m/s 666 mmHg 44%
22:00 +20°C° 0 mm 1 m/s 666 mmHg 45%
23:00 +20°C° 0 mm 1 m/s 666 mmHg 46%

20 Maio, Quinta-feira

Tempo Temperatura Precipitação Vento Pressão Humidade
00:00 +20°C° 0 mm 1 m/s 666 mmHg 47%
01:00 +19°C° 0 mm 1 m/s 666 mmHg 47%
02:00 +19°C° 0 mm 1 m/s 665 mmHg 48%
03:00 +17°C° 0 mm 0 m/s 665 mmHg 48%
04:00 +19°C° 0 mm 1 m/s 665 mmHg 48%
05:00 +19°C° 0 mm 1 m/s 665 mmHg 48%
06:00 +18°C° 0 mm 1 m/s 665 mmHg 49%
07:00 +21°C° 0 mm 1 m/s 666 mmHg 44%
08:00 +24°C° 0 mm 1 m/s 667 mmHg 39%
09:00 +27°C° 0 mm 1 m/s 668 mmHg 34%
10:00 +26°C° 0 mm 0 m/s 669 mmHg 30%
11:00 +28°C° 0 mm 0 m/s 669 mmHg 26%
12:00 +30°C° 0 mm 0 m/s 669 mmHg 21%
13:00 +31°C° 0 mm 1 m/s 668 mmHg 21%
14:00 +31°C° 0 mm 1 m/s 668 mmHg 21%
15:00 +31°C° 0 mm 1 m/s 667 mmHg 21%
16:00 +29°C° 0 mm 1 m/s 666 mmHg 26%
17:00 +26°C° 0 mm 1 m/s 666 mmHg 32%
18:00 +24°C° 0 mm 1 m/s 666 mmHg 37%
19:00 +23°C° 0 mm 1 m/s 666 mmHg 38%
20:00 +22°C° 0 mm 1 m/s 666 mmHg 39%
21:00 +21°C° 0 mm 1 m/s 666 mmHg 40%
22:00 +21°C° 0 mm 1 m/s 666 mmHg 41%
23:00 +20°C° 0 mm 1 m/s 666 mmHg 42%
Mostrar mais